DW8450 Weather Reports


time (UTC)temp
C
wind
direction
speed
KPH
gust
KPH
rain 1hr
cm
rain 24hr
cm
rain mn
cm
humidity
%
barometer
mb
20260508014520 17 239 1.6 11.3 0.00 0.00 0.00 9 1012.6
20260508013011 18 254 4.8 11.3 0.00 0.00 0.00 9 1012.5
20260508011514 19 264 6.4 14.5 0.00 0.00 0.00 9 1012.6
20260508010010 20 236 1.6 16.1 0.00 0.00 0.00 9 1012.6
20260508004509 20 288 8.0 16.1 0.00 0.00 0.00 8 1012.6
20260508003008 20 277 4.8 17.7 0.00 0.00 0.00 9 1012.7
20260508001522 20 297 4.8 14.5 0.00 0.00 0.00 9 1012.9
20260508000007 20 304 4.8 12.9 0.00 0.00 0.00 9 1013.0
20260507234505 20 281 8.0 19.3 0.00 0.00 0.00 10 1013.1
20260507233009 20 261 8.0 17.7 0.00 0.00 0.00 11 1013.2
20260507231509 20 277 3.2 20.9 0.00 0.00 0.00 12 1013.2
20260507230006 21 281 6.4 19.3 0.00 0.00 0.00 13 1013.3
20260507224603 20 277 4.8 20.9 0.00 0.00 0.00 15 1013.5
20260507223100 20 298 4.8 19.3 0.00 0.00 0.00 15 1013.5
20260507221557 21 300 6.4 20.9 0.00 0.00 0.00 16 1013.9
20260507220056 21 270 9.7 22.5 0.00 0.00 0.00 16 1014.1
20260507214556 20 197 6.4 22.5 0.00 0.00 0.00 16 1014.4
20260507213056 20 227 6.4 19.3 0.00 0.00 0.00 16 1014.8
20260507211553 20 306 9.7 20.9 0.00 0.00 0.00 12 1015.1
20260507210048 20 297 8.0 20.9 0.00 0.00 0.00 13 1015.3
20260507204545 20 253 8.0 24.1 0.00 0.00 0.00 13 1015.5
20260507203042 20 230 9.7 24.1 0.00 0.00 0.00 10 1015.8
20260507201546 20 322 11.3 22.5 0.00 0.00 0.00 10 1016.0
20260507200042 19 317 9.7 22.5 0.00 0.00 0.00 11 1016.1
20260507194536 18 267 12.9 30.6 0.00 0.00 0.00 9 1016.5
20260507193039 18 309 12.9 24.1 0.00 0.00 0.00 9 1016.5
20260507191532 18 277 11.3 24.1 0.00 0.00 0.00 10 1016.7
20260507190029 18 288 12.9 27.4 0.00 0.00 0.00 12 1016.8
20260507184526 17 292 11.3 24.1 0.00 0.00 0.00 13 1017.1
20260507183023 17 295 14.5 25.7 0.00 0.00 0.00 14 1017.1
20260507181520 17 288 9.7 25.7 0.00 0.00 0.00 17 1017.2
20260507180034 16 309 16.1 30.6 0.00 0.00 0.00 19 1017.2
20260507174516 15 312 14.5 25.7 0.00 0.00 0.00 23 1017.4
20260507173011 15 279 12.9 27.4 0.00 0.00 0.00 26 1017.7
20260507171503 13 275 11.3 20.9 0.00 0.00 0.00 31 1018.1
20260507170059 12 273 12.9 22.5 0.00 0.00 0.00 34 1018.3
20260507164554 11 294 14.5 24.1 0.00 0.00 0.00 37 1018.2
20260507163050 11 296 11.3 22.5 0.00 0.00 0.00 39 1018.7
20260507161551 11 304 12.9 19.3 0.00 0.00 0.00 40 1019.2
20260507160042 11 306 8.0 17.7 0.00 0.00 0.00 43 1019.1
20260507154542 10 311 11.3 20.9 0.00 0.00 0.00 41 1019.3
20260507153033 10 293 8.0 14.5 0.00 0.00 0.00 44 1019.4
20260507151529 9 256 4.8 14.5 0.00 0.00 0.00 52 1019.4
20260507150024 8 267 6.4 11.3 0.00 0.00 0.00 56 1019.5
20260507144520 7 269 4.8 12.9 0.00 0.00 0.00 65 1019.7
20260507143016 6 201 3.2 9.7 0.00 0.00 0.00 68 1019.8
20260507141512 5 71 3.2 11.3 0.00 0.00 0.00 70 1019.9
20260507140008 4 71 0.0 6.4 0.00 0.00 0.00 76 1020.2
20260507134507 3 71 0.0 6.4 0.00 0.00 0.00 79 1020.3
20260507133100 2 71 1.6 4.8 0.00 0.00 0.00 87 1020.3
20260507131555 1 71 0.0 3.2 0.00 0.00 0.00 89 1020.4
20260507124555 0 71 1.6 4.8 0.00 0.00 0.00 87 1020.5
20260507123042 -1 71 1.6 4.8 0.00 0.00 0.00 87 1020.4
20260507121540 -1 71 3.2 6.4 0.00 0.00 0.00 88 1020.4
20260507120039 -1 71 3.2 6.4 0.00 0.00 0.00 88 1020.5
20260507114538 -1 71 1.6 6.4 0.00 0.00 0.00 88 1020.4
20260507113035 -1 71 0.0 3.2 0.00 0.00 0.00 88 1020.5
20260507111534 -1 71 0.0 3.2 0.00 0.00 0.00 87 1020.4
20260507110035 -1 71 0.0 4.8 0.00 0.00 0.00 87 1020.6
20260507104531 -1 71 1.6 4.8 0.00 0.00 0.00 87 1020.5
20260507103031 0 71 0.0 0.0 0.00 0.00 0.00 86 1020.6
20260507101526 0 71 0.0 0.0 0.00 0.00 0.00 85 1020.6
20260507100024 0 71 0.0 0.0 0.00 0.00 0.00 84 1020.5
20260507094522 0 71 0.0 0.0 0.00 0.00 0.00 82 1020.7
20260507093018 0 71 0.0 1.6 0.00 0.00 0.00 80 1020.6
20260507091519 1 71 0.0 3.2 0.00 0.00 0.00 81 1020.4
20260507090013 1 71 0.0 6.4 0.00 0.00 0.00 82 1020.5
20260507084533 1 71 1.6 6.4 0.00 0.00 0.00 82 1020.3
20260507083010 1 71 3.2 6.4 0.00 0.00 0.00 81 1020.2
20260507081510 2 71 1.6 6.4 0.00 0.00 0.00 79 1019.9
20260507080005 2 71 3.2 8.0 0.00 0.00 0.00 79 1019.8
20260507074507 2 71 1.6 12.9 0.00 0.00 0.00 79 1019.8
20260507073002 2 71 3.2 8.0 0.00 0.00 0.00 78 1019.6
20260507071500 2 71 4.8 12.9 0.00 0.00 0.00 78 1019.5
20260507070107 2 71 3.2 11.3 0.00 0.00 0.00 76 1019.4
20260507064558 2 71 1.6 8.0 0.00 0.00 0.00 74 1019.3
20260507063053 3 71 4.8 12.9 0.00 0.00 0.00 73 1019.3
20260507061550 3 70 4.8 16.1 0.00 0.00 0.00 71 1019.1
20260507060047 3 67 6.4 12.9 0.00 0.00 0.00 69 1018.8
20260507054606 3 67 6.4 14.5 0.00 0.00 0.00 69 1018.7
20260507053051 4 63 6.4 16.1 0.00 0.00 0.00 67 1018.5
20260507051549 5 61 6.4 12.9 0.00 0.00 0.00 53 1018.5
20260507050048 5 286 0.0 3.2 0.00 0.00 0.00 55 1018.3
20260507044546 6 286 0.0 0.0 0.00 0.00 0.00 52 1018.0
20260507043038 6 286 0.0 0.0 0.00 0.00 0.00 52 1017.9
20260507041542 6 286 0.0 0.0 0.00 0.00 0.00 51 1017.6
20260507040040 6 286 1.6 4.8 0.00 0.00 0.00 49 1017.3
20260507034533 7 286 0.0 0.0 0.00 0.08 0.00 45 1017.0
20260507033032 8 286 0.0 1.6 0.00 0.08 0.00 44 1016.9
20260507031530 8 286 0.0 3.2 0.00 0.08 0.00 42 1016.6
20260507030028 9 286 0.0 4.8 0.00 0.08 0.00 41 1016.2
20260507024532 10 286 1.6 9.7 0.00 0.10 0.00 39 1015.8
20260507023023 10 286 6.4 14.5 0.00 0.10 0.00 38 1015.6
20260507021529 11 288 9.7 20.9 0.00 0.10 0.00 38 1015.4
20260507020021 11 288 9.7 22.5 0.00 0.10 0.00 38 1015.0